Regional Weather Roundup
Issued by NWS

Home | Current Version | Previous Version | Text Only | Print | Product List | Glossary Off
Versions: 1 2 3 4 5 6 7 8 9 10 11 12 13 14 15 16 17 18 19 20 21 22 23 24 25 26 27 28 29 30 31 32 33 34 35 36 37 38 39 40 41 42 43 44 45 46 47 48 49 50

000
ASUS44 KMEG 302200
RWRTN
TENNESSEE HOURLY STATE WEATHER ROUNDUP
NATIONAL WEATHER SERVICE MEMPHIS TN
500 PM CDT THU OCT 30 2014

TNZ002-004-019-021-049-052-054-088>092-302300-
WEST TENNESSEE

CITY           SKY/WX    TMP DP  RH WIND       PRES   REMARKS
MEMPHIS INTL   MOSUNNY   69  39  33 SW3       30.04F
NWS MEMPHIS      N/A     69 N/A N/A MISG        N/A
JACKSON        SUNNY     66  36  32 N3        30.04F
DYERSBURG      PTSUNNY   64  36  34 CALM      30.05F
UNION CITY     SUNNY     61  43  51 S3        30.03F
PARIS          SUNNY     61  36  39 CALM      30.05F
LEXINGTON      SUNNY     63  34  34 CALM      30.04S
SAVANNAH       SUNNY     64  37  36 N3        30.05F
$$

TNZ008-025-027-028-033-062-065-066-302300-
NORTH MIDDLE TENNESSEE

CITY           SKY/WX    TMP DP  RH WIND       PRES   REMARKS
NASHVILLE      CLEAR     62  38  40 N5        30.05S
CLARKSVILLE    CLEAR     60  36  40 NW5       30.05F
COOKEVILLE     CLEAR     57  39  51 N6        30.03F
CROSSVILLE     CLEAR     58  36  43 N5        30.03S
$$

TNZ061-075-076-078-094-096-097-302300-
SOUTH MIDDLE TENNESSEE

CITY           SKY/WX    TMP DP  RH WIND       PRES   REMARKS
WINCHESTER     CLEAR     59  39  47 NW7       30.03S
SHELBYVILLE    CLEAR     61  39  44 N6        30.05S
$$

TNZ017-018-042-046-047-302300-
NORTHEAST TENNESSEE

CITY           SKY/WX    TMP DP  RH WIND       PRES   REMARKS
TRI CITIES     PTCLDY    57  38  48 W5        30.01F
ELIZABETHTON   CLEAR     54  36  50 W3        30.02R
$$

TNZ012-013-036-069-073-074-302300-
CENTRAL EAST TENNESSEE

CITY           SKY/WX    TMP DP  RH WIND       PRES   REMARKS
KNOXVILLE      CLEAR     61  38  42 CALM      30.00F
OAK RIDGE      CLEAR     62  40  44 CALM      30.02S
GATLINBURG     CLEAR     57  36  44 CALM      30.01S
$$

TNZ083-085-099-302300-
SOUTHEAST TENNESSEE

CITY           SKY/WX    TMP DP  RH WIND       PRES   REMARKS
CHATTANOOGA    PTCLDY    65  38  36 N5        30.00F
$$

SKY/WX REPORTED AS FAIR MEANS FEW OR NO CLOUDS BELOW
12 THOUSAND FEET.




USA.gov is the U.S. government's official web portal to all federal, state and local government web resources and services.